SCP
0 0 0 0 0 0 0 0 0 -0 -0 0 0 0 0 0 -0 -0 -0 -0 -0 0 0 0 0 0 0 -0 -0 -0 0 0 0 0 0 0 0 0 0 0 0 0 0
0 0 0 0 0 0 0 0 0 -0 0 0 0 0 0 0 0 0 -0 -0 -0 0 0 0 0 0 0 0 -0 0 0 0 0 0 0 0 0 0 0 0 0 0 0
0 0 0 0 0 0 0 0 0 0 0 0 0 0 0 0 0 0 0 -0 0 0 0 0 0 0 0 0 0 0 0 0 0 0 0 0 0 0 0 0 0 0 0
0 0 0 0 0 0 0 0 0 0 0 0 0 0 0 0 0 0 0 0 0 0 0 0 0 0 0 0 0 0 -0 -0 0 0 0 0 0 0 0 0 0 0 0
0 0 0 0 0 0 0 0 0 0 0 0 0 0 0 0 0 0 0 0 0 0 0 0 0 0 0 0 0 0 0 0 0 0 0 0 0 0 0 0 0 0 0
0 0 0 0 0 0 0 0 0 0 0 0 0 0 0 0 0 0 0 0 0 0 0 0 0 0 0 0 0 0 0 0 0 0 0 0 0 0 0 0 0 0 0
-0 0 0 0 0 0 0 0 0 0 0 0 0 0 0 0 0 0 0 0 0 -0 0 0 0 0 0 0 0 0 0 0 0 0 0 0 0 0 0 0 0 0 0
-0 0 0 0 0 0 0 0 0 0 0 0 0 0 0 0 0 0 0 0 0 0 0 0 0 0 0 0 0 0 0 0 0 0 0 0 0 0 0 0 0 0 0
0 0 -0 -0 0 0 0 0 0 0 0 0 0 0 0 0 0 0 0 0 0 0 0 0 0 0 0 0 0 0 0 0 0 0 0 0 0 0 0 0 0 0 0
0 0 0 0 0 0 0 0 0 0 0 0 0 0 0 0 0 0 0 0 0 0 0 0 0 0 0 0 0 0 0 0 0 0 0 0 0 0 0 0 0 0 0
0 0 0 0 0 0 0 0 0 0 0 0 0 0 0 0 0 0 0 0 0 0 0 0 0 0 0 0 0 0 0 0 0 0 0 0 0 0 0 0 0 0 0
0 -0 -0 0 0 0 0 0 0 0 0 0 0 0 0 0 0 0 0 0 0 0 0 0 0 0 0 0 0 0 0 0 0 0 0 0 0 0 0 0 -0 -0 -0
0 0 0 0 0 0 0 0 0 0 0 0 0 0 0 0 0 0 0 0 0 0 0 0 0 0 0 0 0 0 0 0 0 0 0 0 0 0 0 0 -0 -0 -0
0 0 0 0 0 0 0 0 0 0 0 0 0 0 0 0 0 0 0 0 0 0 0 0 0 0 0 0 0 0 0 0 0 0 0 0 0 0 0 0 0 -0 -0
0 0 0 0 0 0 0 0 0 0 0 0 0 0 0 0 0 0 0 0 0 0 0 0 0 0 0 0 0 0 0 0 0 0 0 0 0 0 0 0 0 0 0
0 0 0 0 0 0 0 0 0 0 0 0 0 0 0 0 0 0 0 0 0 0 0 0 0 0 0 0 0 0 0 0 0 0 0 0 0 0 0 0 0 0 0
0 0 0 0 0 0 0 0 0 0 0 0 0 0 0 0 0 0 0 0 0 0 0 0 0 0 0 0 0 0 0 0 0 0 0 0 0 0 0 0 0 0 0
0 0 0 0 0 0 0 0 0 0 0 0 0 0 0 0 0 0 0 0 0 0 0 0 0 0 0 0 0 0 0 0 0 0 0 0 0 0 0 0 0 0 0
0 0 0 0 0 0 0 0 0 0 0 0 0 0 0 0 0 0 0 0 0 0 0 0 0 0 0 0 0 0 0 0 0 0 0 0 0 0 0 0 0 0 0
0 0 0 0 0 0 0 0 0 0 0 0 0 0 0 0 0 0 0 0 0 0 0 0 0 0 0 0 0 0 0 0 0 0 0 0 0 0 0 0 0 0 0
0 0 0 0 0 0 0 0 0 0 0 0 0 0 0 0 0 0 0 0 0 0 0 0 0 0 0 0 0 0 0 0 0 0 0 0 0 0 0 0 0 0 0
0 0 0 0 0 0 0 0 0 0 0 0 0 0 0 0 0 0 0 0 0 0 0 0 0 0 0 0 0 0 0 0 0 0 0 0 0 0 0 0 0 0 0
0 0 0 0 0 0 0 0 0 0 0 0 0 0 0 0 0 0 0 0 0 0 0 0 0 0 0 0 0 0 0 0 0 0 0 0 0 0 0 0 0 0 0
0 0 0 0 0 0 0 0 0 0 0 0 0 0 0 0 0 0 0 0 0 0 0 0 0 0 0 0 0 0 0 0 0 0 0 0 0 0 0 0 0 0 0
0 0 0 0 0 0 0 0 0 0 0 0 0 0 0 0 0 0 0 0 0 0 0 0 0 0 0 0 0 0 0 0 0 0 0 0 0 0 0 0 0 0 0
0 0 0 0 0 0 0 0 0 0 0 0 0 0 0 0 0 0 0 0 0 0 0 0 0 0 0 0 0 0 0 0 0 0 0 0 0 0 0 0 0 0 0
Wind_Speed
4 4 5 3 3 3 3 2 2 2 2 3 2 3 3 3 3 3 3 3 4 4 3 3 3 2 3 3 2 2 2 1 0 2 2 3 3 4 4 3 3 3 3
5 5 4 4 4 4 3 2 3 3 2 2 2 3 3 3 3 3 3 3 3 3 3 3 3 2 3 2 2 2 2 1 1 1 2 2 3 3 3 4 4 4 3
5 5 4 4 4 3 3 2 3 3 3 2 3 3 2 2 3 2 2 3 3 2 2 2 2 2 2 2 2 2 2 2 1 0 2 2 2 3 3 4 4 3 4
5 5 5 4 3 3 3 3 3 3 3 2 3 2 2 2 2 2 3 3 3 3 2 2 2 1 1 1 2 2 2 2 2 1 2 2 2 3 2 3 4 3 4
6 5 4 3 3 3 3 3 3 3 3 2 3 3 2 2 2 3 3 3 3 3 3 3 3 4 5 3 2 1 1 1 1 1 2 2 3 3 3 3 3 4 4
6 5 4 4 3 3 3 3 3 3 2 3 3 3 3 3 5 6 4 3 3 3 3 3 3 4 6 7 7 6 3 1 1 1 1 2 3 3 3 3 3 3 4
6 5 4 4 4 3 3 3 3 2 2 2 2 2 2 2 5 6 6 4 3 2 2 2 4 5 5 3 5 7 6 7 4 1 1 3 3 3 3 3 3 3 4
6 5 4 4 4 3 3 3 2 2 2 1 1 1 2 2 4 5 5 4 3 2 2 1 2 3 4 4 3 4 4 4 4 2 2 4 4 3 3 3 4 4 4
6 5 5 5 5 4 4 3 2 2 1 1 1 1 1 1 3 4 5 3 3 3 2 2 2 2 6 7 4 4 5 5 6 7 6 6 7 7 4 2 2 2 4
6 6 5 5 5 5 4 3 2 2 2 1 1 1 1 0 2 4 4 2 2 2 2 3 4 5 8 7 3 2 4 5 5 6 6 6 5 5 6 1 1 1 2
6 5 5 5 5 4 3 3 3 3 2 2 2 1 1 0 1 3 3 2 1 0 1 2 3 8 8 8 6 2 4 6 4 3 3 3 4 3 3 2 1 2 2
6 5 5 4 4 4 4 3 3 3 3 2 1 1 1 1 1 1 2 2 1 0 1 2 3 7 8 9 6 7 8 6 2 2 3 3 3 4 4 4 3 3 4
6 5 4 4 3 3 4 3 2 2 2 1 1 0 1 1 2 3 2 2 2 1 2 4 6 8 7 6 7 9 7 3 2 2 3 4 4 4 4 3 4 4 4
7 5 4 4 3 3 2 3 3 2 2 1 1 1 1 1 1 2 1 1 2 2 2 4 7 7 5 5 6 5 3 2 2 3 4 4 3 3 3 3 3 3 3
6 5 4 4 4 3 2 1 2 2 3 3 3 2 2 2 3 3 1 1 1 1 2 2 2 3 3 3 4 4 3 3 3 3 3 4 4 3 4 3 3 3 3
6 5 4 3 3 3 3 2 2 1 0 2 2 2 2 3 3 3 3 3 3 3 2 1 2 3 3 4 4 4 3 3 3 3 3 4 4 5 5 4 3 3 4
6 5 4 4 3 3 3 3 1 2 3 2 2 2 2 3 2 3 3 3 4 3 1 2 3 3 4 4 4 4 4 4 4 3 4 4 4 5 5 5 4 4 5
5 6 5 4 4 3 3 2 2 2 0 2 3 3 3 3 3 3 3 2 3 2 2 3 4 4 4 4 4 4 4 4 4 4 4 5 5 5 5 5 5 6 6
5 4 3 3 3 3 3 2 2 2 1 1 2 3 4 3 3 3 2 1 2 3 3 3 4 4 4 4 4 4 4 5 5 5 5 5 5 5 5 6 6 8 7
4 6 5 4 3 2 2 2 2 2 1 1 2 2 2 1 1 2 2 2 2 3 3 4 4 4 4 4 4 4 4 5 5 5 5 5 5 5 6 7 6 6 6
4 4 6 4 3 3 2 2 2 2 2 2 2 3 2 1 2 3 3 3 3 3 4 4 4 4 4 4 4 4 5 5 5 5 5 5 5 5 5 6 7 7 7
4 4 3 3 3 2 2 2 2 2 2 2 2 2 3 1 2 2 3 3 3 3 3 3 4 4 4 4 4 4 5 5 5 5 5 6 5 6 6 6 7 7 7
4 4 3 2 2 2 2 1 1 1 2 2 2 2 2 2 2 3 3 3 3 4 4 3 4 4 4 4 4 4 5 6 5 6 6 6 6 6 7 7 8 8 8
4 4 4 3 2 2 2 2 2 2 2 2 2 2 2 3 3 3 3 3 3 4 4 4 4 6 7 5 4 4 5 6 6 6 8 8 8 8 7 8 8 9 9
3 3 3 3 2 2 2 2 2 2 2 2 2 2 2 2 3 3 3 3 4 4 5 5 4 5 6 7 7 6 9 11 10 8 7 7 8 9 9 9 8 9 9
3 3 3 2 2 2 2 2 2 2 2 2 2 2 2 2 3 3 3 3 3 4 5 4 5 6 8 7 8 10 12 12 12 13 8 6 7 8 9 8 10 9 10
Wind_Direction
134 125 118 116 115 107 101 103 104 94 90 87 83 72 59 45 43 54 48 47 50 36 34 48 29 27 35 25 30 37 45 91 136 299 304 319 346 347 342 336 327 318 316
139 124 118 113 107 100 99 94 99 99 93 93 85 75 62 53 51 59 53 50 53 41 28 38 18 32 34 23 28 25 20 41 106 318 314 330 334 335 332 335 338 337 321
130 123 116 113 113 115 111 102 101 99 86 76 76 74 66 60 59 59 71 63 54 44 38 42 11 38 22 12 21 16 4 20 43 29 312 315 319 336 340 333 334 329 326
129 127 129 136 136 133 119 105 98 98 90 75 68 70 69 65 62 58 67 64 47 35 36 43 34 50 24 10 21 9 16 24 17 11 333 324 315 318 340 332 331 328 321
134 133 144 143 130 120 113 104 92 87 87 83 74 56 49 62 65 73 66 68 54 36 27 27 35 43 39 33 36 11 35 31 11 5 338 335 327 334 327 312 315 314 308
143 148 148 138 127 125 125 113 97 88 80 78 73 72 60 54 63 72 77 63 55 50 31 16 24 30 21 20 25 26 27 21 342 334 311 309 296 296 304 316 317 333 315
150 151 151 148 141 142 133 114 109 106 90 80 73 81 72 50 62 66 68 73 61 52 43 29 23 16 15 9 8 12 10 6 353 267 261 275 278 280 297 308 303 294 277
155 160 159 152 149 140 126 126 129 115 111 106 92 99 86 46 61 64 65 66 58 40 35 47 35 360 1 5 6 2 348 338 328 325 260 266 275 274 252 264 274 293 289
165 173 169 159 151 143 145 158 159 130 116 117 121 119 102 22 44 58 64 64 51 25 13 21 20 1 354 5 14 353 339 328 329 334 330 326 325 330 331 345 339 337 312
176 174 166 157 153 158 166 164 147 136 140 123 92 103 121 48 21 51 67 78 56 10 352 347 349 351 347 354 360 346 329 312 320 331 336 335 332 333 339 330 270 296 298
165 154 150 154 157 159 154 145 136 129 115 102 89 54 61 14 1 45 65 86 116 9 335 326 325 341 345 344 343 325 306 312 314 320 323 325 326 325 321 309 262 229 259
142 140 146 150 151 139 132 130 129 128 119 109 87 36 356 333 343 358 25 28 40 120 284 293 307 332 340 340 338 329 331 338 336 333 327 316 309 303 297 297 289 272 253
133 135 138 133 124 127 134 136 122 122 132 144 138 175 302 322 326 339 355 5 3 348 288 312 327 335 338 337 336 337 339 339 329 318 303 291 280 280 290 300 301 297 292
137 139 135 130 124 118 124 134 137 151 156 162 173 203 251 299 303 309 319 331 341 340 332 328 332 335 333 322 328 332 328 308 302 283 282 283 290 297 296 292 291 298 300
140 141 140 140 140 132 121 136 158 189 185 178 195 193 196 252 263 258 263 277 270 273 321 342 340 333 329 322 318 312 308 312 308 294 290 295 297 296 292 291 282 284 281
143 147 147 143 137 131 122 66 25 51 215 190 192 195 232 247 271 277 285 300 311 319 353 323 302 296 293 294 296 299 297 293 286 283 286 288 290 291 292 290 282 276 279
152 154 151 149 147 148 146 145 131 350 2 343 289 262 257 270 278 286 291 303 315 332 324 283 283 285 284 286 285 284 285 284 281 280 282 284 285 288 290 290 289 286 283
147 152 152 158 159 159 162 166 167 170 269 312 310 297 285 277 286 288 289 326 320 313 264 266 274 277 278 282 283 282 283 287 284 279 278 279 279 281 285 284 281 278 280
146 152 153 152 154 156 156 157 168 180 199 257 308 316 306 302 306 303 301 257 260 273 272 269 268 271 273 275 276 277 279 281 282 281 282 282 280 278 280 279 278 279 279
154 156 149 147 146 146 151 162 178 190 206 227 250 261 286 344 318 304 296 271 262 266 270 271 273 274 275 276 277 279 282 283 284 282 282 282 281 279 279 282 283 284 282
152 157 149 142 154 166 172 186 193 194 209 231 250 254 248 230 249 264 272 270 263 266 270 272 273 277 276 276 275 277 281 284 282 282 282 283 284 283 281 281 282 281 282
149 152 156 160 163 170 180 186 187 198 216 231 260 277 275 258 252 262 269 273 270 265 265 269 275 276 274 272 276 280 284 286 286 285 286 286 285 283 283 283 284 285 285
148 151 154 159 162 171 170 180 186 200 224 243 252 262 261 256 260 265 271 275 277 278 277 274 277 281 281 277 273 272 280 285 286 287 289 288 286 284 282 281 282 284 283
151 155 159 162 162 167 179 196 207 219 231 244 253 253 256 260 265 270 273 276 281 286 286 282 278 281 284 287 287 281 279 284 291 290 286 285 286 285 283 282 281 281 282
147 152 158 165 170 177 188 201 214 223 234 247 255 263 270 274 278 282 283 282 287 289 290 291 287 289 290 290 290 289 290 291 292 296 293 287 284 284 284 282 282 283 282
152 157 160 163 169 177 188 207 223 228 234 250 257 261 266 269 275 284 290 293 295 293 293 293 290 291 292 292 290 292 294 296 296 297 295 288 286 286 288 286 285 285 285